When you browse on this site, cookies collect data to enhance your experience and personalize the content and advertising you see.
Visit our Privacy Policy to learn more. By continuing to use the site, you agree to this use of cookies and data.

Stündliche Wetter Cayacoa de Boca Chica

Heute, 4 Juli, Samstag

Zeit Temperatur Niederschläge Wind Luftdruck Luftfeuchtigkeit
00:00 +27°C° 0 mm 1 m/S 758 mmHg 86%
01:00 +26°C° 0 mm 1 m/S 757 mmHg 86%
02:00 +26°C° 0 mm 1 m/S 757 mmHg 86%
03:00 +26°C° 0 mm 1 m/S 757 mmHg 86%
04:00 +26°C° 0 mm 1 m/S 757 mmHg 86%
05:00 +26°C° 0 mm 1 m/S 757 mmHg 83%
06:00 +27°C° 0 mm 1 m/S 757 mmHg 81%
07:00 +28°C° 0 mm 1 m/S 758 mmHg 78%
08:00 +30°C° 0 mm 1 m/S 758 mmHg 73%
09:00 +31°C° 0 mm 2 m/S 758 mmHg 68%
10:00 +34°C° 0 mm 2 m/S 758 mmHg 63%
11:00 +34°C° 0 mm 2 m/S 758 mmHg 61%
12:00 +35°C° 0 mm 3 m/S 758 mmHg 58%
13:00 +35°C° 0 mm 3 m/S 758 mmHg 56%
14:00 +35°C° 0 mm 3 m/S 757 mmHg 59%
15:00 +34°C° 0 mm 3 m/S 757 mmHg 62%
16:00 +34°C° 0 mm 3 m/S 756 mmHg 65%
17:00 +31°C° 0 mm 3 m/S 756 mmHg 71%
18:00 +30°C° 0 mm 2 m/S 757 mmHg 77%
19:00 +28°C° 0 mm 2 m/S 757 mmHg 84%
20:00 +28°C° 0 mm 1 m/S 757 mmHg 84%
21:00 +28°C° 0 mm 1 m/S 758 mmHg 85%
22:00 +28°C° 0 mm 1 m/S 758 mmHg 86%
23:00 +27°C° 0.2 mm 1 m/S 758 mmHg 87%

Morgen, 5 Juli, Sonntag

Zeit Temperatur Niederschläge Wind Luftdruck Luftfeuchtigkeit
00:00 +27°C° 0.2 mm 1 m/S 758 mmHg 88%
01:00 +27°C° 0.2 mm 1 m/S 757 mmHg 89%
02:00 +27°C° 0.1 mm 1 m/S 757 mmHg 90%
03:00 +26°C° 0.1 mm 2 m/S 757 mmHg 91%
04:00 +26°C° 0.1 mm 2 m/S 757 mmHg 91%
05:00 +27°C° 0.2 mm 2 m/S 757 mmHg 88%
06:00 +28°C° 0.2 mm 2 m/S 758 mmHg 85%
07:00 +28°C° 0.2 mm 2 m/S 758 mmHg 83%
08:00 +30°C° 0.2 mm 2 m/S 758 mmHg 75%
09:00 +31°C° 0.2 mm 2 m/S 759 mmHg 68%
10:00 +32°C° 0.2 mm 2 m/S 759 mmHg 61%
11:00 +34°C° 0.1 mm 3 m/S 758 mmHg 60%
12:00 +34°C° 0.1 mm 3 m/S 758 mmHg 58%
13:00 +35°C° 0.1 mm 3 m/S 758 mmHg 56%
14:00 +34°C° 0.8 mm 3 m/S 757 mmHg 61%
15:00 +33°C° 0.8 mm 3 m/S 757 mmHg 66%
16:00 +31°C° 0.8 mm 3 m/S 756 mmHg 71%
17:00 +30°C° 0.5 mm 3 m/S 757 mmHg 76%
18:00 +29°C° 0.5 mm 2 m/S 757 mmHg 81%
19:00 +28°C° 0.5 mm 2 m/S 758 mmHg 85%
20:00 +27°C° 0.3 mm 2 m/S 758 mmHg 87%
21:00 +27°C° 0.3 mm 2 m/S 758 mmHg 88%
22:00 +27°C° 0.3 mm 2 m/S 759 mmHg 89%
23:00 +26°C° 1 mm 2 m/S 758 mmHg 90%

übermorgen, 6 Juli, Montag

Zeit Temperatur Niederschläge Wind Luftdruck Luftfeuchtigkeit
00:00 +26°C° 1 mm 2 m/S 758 mmHg 91%
01:00 +26°C° 1 mm 2 m/S 758 mmHg 91%
02:00 +26°C° 0.5 mm 2 m/S 758 mmHg 92%
03:00 +26°C° 0.5 mm 2 m/S 758 mmHg 93%
04:00 +25°C° 0.5 mm 2 m/S 758 mmHg 93%
05:00 +26°C° 0.2 mm 2 m/S 758 mmHg 91%
06:00 +27°C° 0.2 mm 2 m/S 759 mmHg 88%
07:00 +28°C° 0.2 mm 2 m/S 759 mmHg 86%
08:00 +29°C° 0.2 mm 2 m/S 759 mmHg 79%
09:00 +31°C° 0.2 mm 3 m/S 759 mmHg 71%
10:00 +33°C° 0.2 mm 3 m/S 759 mmHg 64%
11:00 +33°C° 0.1 mm 3 m/S 759 mmHg 61%
12:00 +34°C° 0.1 mm 3 m/S 759 mmHg 58%
13:00 +35°C° 0.1 mm 3 m/S 759 mmHg 55%
14:00 +34°C° 0 mm 3 m/S 758 mmHg 56%
15:00 +34°C° 0 mm 2 m/S 758 mmHg 58%
16:00 +34°C° 0 mm 2 m/S 757 mmHg 59%
17:00 +31°C° 0 mm 2 m/S 758 mmHg 66%
18:00 +30°C° 0 mm 2 m/S 758 mmHg 73%
19:00 +28°C° 0 mm 2 m/S 759 mmHg 80%
20:00 +28°C° 0 mm 3 m/S 759 mmHg 83%
21:00 +27°C° 0 mm 3 m/S 759 mmHg 86%
22:00 +27°C° 0 mm 3 m/S 759 mmHg 90%
23:00 +27°C° 0 mm 3 m/S 759 mmHg 90%

7 Juli, Dienstag

Zeit Temperatur Niederschläge Wind Luftdruck Luftfeuchtigkeit
00:00 +27°C° 0 mm 3 m/S 759 mmHg 91%
01:00 +26°C° 0 mm 3 m/S 758 mmHg 92%
02:00 +26°C° 0 mm 3 m/S 758 mmHg 92%
03:00 +26°C° 0 mm 3 m/S 758 mmHg 92%
04:00 +26°C° 0 mm 3 m/S 758 mmHg 91%
05:00 +27°C° 0.2 mm 3 m/S 758 mmHg 89%
06:00 +27°C° 0.2 mm 3 m/S 758 mmHg 87%
07:00 +28°C° 0.2 mm 3 m/S 758 mmHg 85%
08:00 +30°C° 0.3 mm 3 m/S 759 mmHg 79%
09:00 +31°C° 0.3 mm 3 m/S 759 mmHg 72%
10:00 +33°C° 0.3 mm 3 m/S 759 mmHg 66%
11:00 +33°C° 0.7 mm 3 m/S 759 mmHg 68%
12:00 +33°C° 0.7 mm 3 m/S 758 mmHg 69%
13:00 +33°C° 0.7 mm 3 m/S 758 mmHg 71%
14:00 +33°C° 0.6 mm 3 m/S 758 mmHg 72%
15:00 +33°C° 0.6 mm 3 m/S 757 mmHg 72%
16:00 +33°C° 0.6 mm 3 m/S 757 mmHg 73%
17:00 +31°C° 0.4 mm 3 m/S 757 mmHg 78%
18:00 +29°C° 0.4 mm 2 m/S 757 mmHg 83%
19:00 +28°C° 0.4 mm 2 m/S 758 mmHg 87%
20:00 +28°C° 0.1 mm 2 m/S 758 mmHg 88%
21:00 +27°C° 0.1 mm 3 m/S 758 mmHg 90%
22:00 +27°C° 0.1 mm 3 m/S 759 mmHg 91%
23:00 +26°C° 0 mm 3 m/S 758 mmHg 92%

8 Juli, Mittwoch

Zeit Temperatur Niederschläge Wind Luftdruck Luftfeuchtigkeit
00:00 +26°C° 0 mm 3 m/S 758 mmHg 92%
01:00 +26°C° 0 mm 3 m/S 757 mmHg 93%
02:00 +26°C° 0.1 mm 3 m/S 757 mmHg 93%
03:00 +26°C° 0.1 mm 3 m/S 757 mmHg 93%
04:00 +26°C° 0.1 mm 3 m/S 757 mmHg 93%
05:00 +26°C° 0.1 mm 3 m/S 757 mmHg 91%
06:00 +27°C° 0.1 mm 3 m/S 758 mmHg 89%
07:00 +28°C° 0.1 mm 3 m/S 758 mmHg 87%
08:00 +29°C° 0.1 mm 3 m/S 758 mmHg 79%
09:00 +31°C° 0.1 mm 3 m/S 758 mmHg 72%
10:00 +33°C° 0.1 mm 3 m/S 758 mmHg 65%
11:00 +34°C° 0.2 mm 3 m/S 758 mmHg 63%
12:00 +34°C° 0.2 mm 3 m/S 757 mmHg 61%
13:00 +35°C° 0.2 mm 3 m/S 757 mmHg 59%
14:00 +34°C° 1 mm 3 m/S 757 mmHg 63%
15:00 +33°C° 1 mm 3 m/S 756 mmHg 68%
16:00 +33°C° 1 mm 3 m/S 756 mmHg 72%
17:00 +30°C° 1.9 mm 3 m/S 756 mmHg 76%
18:00 +29°C° 1.9 mm 3 m/S 757 mmHg 81%
19:00 +28°C° 1.9 mm 3 m/S 757 mmHg 85%
20:00 +28°C° 1.4 mm 2 m/S 757 mmHg 86%
21:00 +27°C° 1.4 mm 2 m/S 758 mmHg 87%
22:00 +27°C° 1.4 mm 2 m/S 758 mmHg 88%
23:00 +27°C° 0.1 mm 1 m/S 758 mmHg 89%

9 Juli, Donnerstag

Zeit Temperatur Niederschläge Wind Luftdruck Luftfeuchtigkeit
00:00 +26°C° 0.1 mm 1 m/S 757 mmHg 89%
01:00 +26°C° 0.1 mm 1 m/S 757 mmHg 90%
02:00 +26°C° 0.7 mm 1 m/S 757 mmHg 90%
03:00 +26°C° 0.7 mm 1 m/S 757 mmHg 90%
04:00 +26°C° 0.7 mm 1 m/S 757 mmHg 91%
05:00 +26°C° 2.1 mm 1 m/S 758 mmHg 90%
06:00 +27°C° 2.1 mm 1 m/S 758 mmHg 90%
07:00 +27°C° 2.1 mm 2 m/S 758 mmHg 89%
08:00 +27°C° 3.5 mm 2 m/S 758 mmHg 89%
09:00 +28°C° 3.5 mm 2 m/S 759 mmHg 88%
10:00 +28°C° 3.5 mm 2 m/S 759 mmHg 88%
11:00 +28°C° 3.7 mm 2 m/S 759 mmHg 88%
12:00 +27°C° 3.7 mm 2 m/S 759 mmHg 88%
13:00 +27°C° 3.7 mm 2 m/S 759 mmHg 89%
14:00 +27°C° 0.2 mm 2 m/S 758 mmHg 87%
15:00 +28°C° 0.2 mm 2 m/S 758 mmHg 85%
16:00 +28°C° 0.2 mm 2 m/S 758 mmHg 84%
17:00 +28°C° 0 mm 2 m/S 758 mmHg 84%
18:00 +27°C° 0 mm 2 m/S 758 mmHg 84%
19:00 +27°C° 0 mm 2 m/S 758 mmHg 85%
20:00 +26°C° 0 mm 2 m/S 758 mmHg 86%
21:00 +26°C° 0 mm 2 m/S 759 mmHg 87%
22:00 +26°C° 0 mm 2 m/S 759 mmHg 88%
23:00 +26°C° 0 mm 2 m/S 759 mmHg 88%
Mehr zeigen